This is the latest recevied weather packets stored in our database for station/object K1AWR. If no packets are shown the sender has not sent any weather packets the latest 10 day(s).
| Time | Temp. | Humidity | Pressure | Rain* | Wind** | Luminosity | Snow |
|---|---|---|---|---|---|---|---|
| 1777816535 | 10° C | 52% | 1009.5 hPa | 0 mm | - | 561 W/m² | - |
| 1777816232 | 10° C | 53% | 1009.4 hPa | 0 mm | - | 447 W/m² | - |
| 1777815929 | 10° C | 54% | 1009.4 hPa | 0 mm | - | 270 W/m² | - |
| 1777815627 | 10° C | 53% | 1009.4 hPa | 0 mm | - | 472 W/m² | - |
| 1777815324 | 10° C | 57% | 1009.5 hPa | 0 mm | - | 223 W/m² | - |
| 1777815020 | 9.44° C | 57% | 1009.6 hPa | 0 mm | - | 566 W/m² | - |
| 1777814717 | 8.89° C | 58% | 1009.9 hPa | 0 mm | - | 510 W/m² | - |
| 1777814413 | 8.33° C | 59% | 1009.7 hPa | 0 mm | - | 197 W/m² | - |
| 1777814111 | 8.33° C | 58% | 1009.7 hPa | 0 mm | - | 453 W/m² | - |
| 1777813807 | 8.33° C | 58% | 1009.7 hPa | 0 mm | - | 203 W/m² | - |
| 1777813505 | 8.33° C | 62% | 1009.6 hPa | 0 mm | - | 141 W/m² | - |
| 1777813203 | 8.33° C | 60% | 1009.9 hPa | 0 mm | - | 161 W/m² | - |
| 1777812900 | 7.78° C | 61% | 1009.9 hPa | 0 mm | - | 140 W/m² | - |
| 1777812596 | 7.78° C | 63% | 1009.8 hPa | 0 mm | - | 137 W/m² | - |
| 1777812294 | 7.78° C | 60% | 1009.7 hPa | 0 mm | - | 141 W/m² | - |
| 1777811992 | 7.78° C | 61% | 1009.9 hPa | 0 mm | - | 132 W/m² | - |
| 1777811690 | 7.78° C | 60% | 1009.8 hPa | 0 mm | - | 122 W/m² | - |
| 1777811385 | 7.78° C | 61% | 1009.9 hPa | 0 mm | - | 300 W/m² | - |
| 1777811083 | 7.78° C | 61% | 1009.9 hPa | 0 mm | - | 167 W/m² | - |
| 1777810780 | 7.78° C | 61% | 1009.9 hPa | 0 mm | - | 304 W/m² | - |
| 1777810477 | 7.22° C | 62% | 1009.8 hPa | 0 mm | - | 293 W/m² | - |
| 1777810173 | 7.22° C | 62% | 1009.7 hPa | 0 mm | - | 140 W/m² | - |
| 1777809870 | 7.22° C | 61% | 1009.9 hPa | 0 mm | - | 129 W/m² | - |
| 1777809568 | 7.22° C | 63% | 1009.9 hPa | 0 mm | - | 120 W/m² | - |
| 1777809265 | 7.22° C | 61% | 1009.9 hPa | 0 mm | - | 116 W/m² | - |
* Rain latest hour (hover to see other rain measurements)
** Current wind speed in m/s (hover to see current wind gust speed)